GSAT0222 (PRN E33)

Last updated on Mon Jul 22 2024 00:03:08 GMT+0000 (Coordinated Universal Time)

1 43565U 18060B 24203.00717266 -.00000071 00000+0 00000+0 0 9995 2 43565 57.3086 0.5598 0002364 213.1393 146.8496 1.70475667 37346
UTC large
Height (km)
Speed (km/s)
/
Latitude / Longitude
Inclination (degrees)
Orbital Period (minutes)
Azimuth
Elevation
Range (km)
Doppler Factor

Next 0 passes for location: London (51.5072 / 0.1276)

Sorry there are no passes over London.